User: anonymous   Login
Location: ?????
(55.6500°N, 37.2500°E)
Time: 15:22:43
(UTC+00:00)
Language:

Cosmos 405 Rocket - Orbit

View from above orbital plane
View from above orbital plane
View from above satellite
View from above satellite

Ground track
Ground track

The orbit data is extracted from the following two-line orbital elements,

1 05118U 71028B   25199.90673923  .00016215  00000-0  32607-3 0  9994
2 05118  81.2430 337.0105 0023980  35.6241 324.6598 15.46166108952390
Epoch (UTC): 18 July 2025 21:45:42
Eccentricity: 0.0023980
inclination: 81.2430°
perigee height: 411 km
apogee height: 444 km
right ascension of ascending node: 337.0105°
argument of perigee: 35.6241°
revolutions per day: 15.46166108
mean anomaly at epoch: 324.6598°
orbit number at epoch: 95239

The dashed part of the orbit path shows where the satellite is in the earth's shadow,  

DLR